[[{"header":{"parameterUnit":"m.s-1","parameterCategory":1,"la1":30.2991,"la2":30.254,"lo1":-89.0895,"lo2":-89.0444,"dy":0.0017,"dx":0.0017,"nx":28,"ny":28,"refTime":"2023-08-06T21:00:00:Z","depth":0,"parameterNumber":2,"parameterNumberName":"U-component_of_WINDS"},"data":[0,0,0,0,0,0,0,0,0,0,0,0,0,0,0,0,0,0,0,0,0,0,0,0,0,0,0,0,0,0,0,0,0,0,0,0,0,0,0,0,0,0,0,0,0,0,0,0,0,0,0,0,0,0,0,0,0,0,4.8481,4.8483,0,4.8633,4.8635,4.8637,4.8591,4.8588,4.8585,4.8582,4.8738,4.8745,4.8752,0,0,0,0,0,0,0,0,0,0,0,0,0,4.8151,4.8158,4.8481,4.8483,4.8485,4.8633,4.8635,4.8637,4.8592,4.8588,4.8584,4.858,4.8736,4.8744,4.8753,0,0,0,0,0,0,0,0,0,0,0,0,0,4.8298,4.816,4.8481,4.848,4.8482,4.8633,4.8635,4.8638,4.8593,4.8588,4.8583,4.8579,4.8733,4.8743,4.8754,4.8915,0,0,4.8786,4.8791,0,0,0,0,0,0,0,0,4.829,4.831,4.8478,4.8481,4.8482,4.8588,4.8576,4.8731,4.8594,4.8551,4.8582,4.8576,4.8692,4.8706,4.8745,4.8922,4.8929,4.8787,4.8794,4.8798,4.8801,0,0,0,0,0,0,0,4.828,4.8304,4.8541,4.8481,4.8483,4.8472,4.8488,4.8605,4.8646,4.8554,4.8551,4.8569,4.8692,4.8735,4.8748,4.8931,4.8787,4.8796,4.8803,4.8807,4.9246,4.9251,0,0,0,0,0,0,4.8268,4.8295,4.8537,4.8546,4.8372,4.8482,4.8499,4.8559,4.8645,4.8653,4.8573,4.8567,4.8719,4.8736,4.8753,4.8946,4.8798,4.8808,4.8814,4.9241,4.9247,4.9253,0,0,0,0,0,0,4.8261,4.829,4.853,4.842,4.845,4.8493,4.856,4.8565,4.8607,4.8659,4.8666,4.8609,4.8716,4.8738,4.8874,4.8951,4.8813,4.8823,4.9235,4.9243,4.925,4.9333,0,0,0,0,0,0,4.8252,4.8288,4.835,4.8422,4.8456,4.8649,4.8565,4.8571,4.8625,4.8618,4.8695,4.8703,4.8714,4.8859,4.8885,4.8963,4.8831,4.9228,4.9238,4.9248,4.9324,4.9343,4.9359,0,0,0,0,0,4.824,4.8368,4.8353,4.8383,4.8534,4.8654,4.8673,4.8683,4.8632,4.8694,4.8727,4.8701,4.8938,4.8873,4.8902,4.8985,4.9223,4.9235,4.9247,4.9316,4.9339,4.9359,0,0,0,0,0,0,4.8304,4.8377,4.8362,4.8516,4.8579,4.8646,4.8725,4.8708,4.8786,4.8776,4.8785,4.8803,4.8942,4.8977,4.8903,4.9144,4.9073,4.9092,4.9116,4.9138,4.9156,4.9144,4.884,0,0,0,0,0,4.8336,4.8427,4.8486,4.8617,4.8649,4.8682,4.8734,4.8736,4.8802,4.8828,4.8872,4.8936,4.9025,4.9084,4.9169,4.9329,4.9344,4.94,4.9418,4.9432,4.9447,4.9533,4.9557,4.9292,4.9292,4.9292,0,0,4.8403,4.8454,4.8511,4.8631,4.868,4.8773,4.8704,4.8807,4.8876,4.8844,4.8974,4.9009,4.9081,4.923,4.9297,4.9263,4.9524,4.9447,4.9458,4.9466,4.9547,4.9572,4.9595,4.93,4.9298,4.9297,0,0,4.8572,4.8621,4.8734,4.8784,4.8859,4.888,4.8907,4.8977,4.8998,4.9129,4.9106,4.9189,4.9343,4.9395,4.9442,4.963,4.9608,4.9658,4.975,4.9833,4.9854,4.9873,4.9938,4.9962,4.9673,4.9674,4.9674,0,4.8646,4.8787,4.8795,4.8899,4.8951,4.8926,4.904,4.9088,4.9187,4.9224,4.9185,4.9376,4.9424,4.9583,4.9628,4.9668,4.9698,4.9649,4.9851,4.9869,4.9887,4.9949,4.9974,4.9679,4.9678,4.9678,4.9677,0,4.8873,4.8971,4.9053,4.9148,4.921,4.9319,4.9343,4.9405,4.9401,4.9426,4.9559,4.9615,4.971,4.9748,4.9747,4.9907,4.9884,4.9848,4.9777,4.9917,4.9976,5.0,4.9687,4.9685,4.9683,4.9682,0,0,4.9086,4.9184,4.9214,4.9256,4.9336,4.9412,4.9519,4.9612,4.9664,4.9733,4.9822,4.9953,4.992,4.9973,4.9976,5.005,5.0193,5.0004,5.0006,5.0036,5.0372,5.0397,5.0425,5.0179,5.0184,5.0188,5.0365,0,4.9261,4.9449,4.9459,4.963,4.9719,4.9696,4.9789,4.9848,4.9874,4.9954,4.9983,5.0074,5.0024,5.0056,5.0127,5.016,5.026,5.0148,5.0261,5.0265,5.0242,5.0456,5.0483,5.0648,5.0388,5.0392,5.0395,0,4.9491,4.9566,4.9745,4.9811,4.9849,4.9933,5.0017,5.0094,5.016,5.0174,5.0233,5.0226,5.0335,5.0261,5.0411,5.0335,5.0382,5.0405,5.0412,5.0421,5.0337,5.0469,5.07,5.0724,5.0432,5.0429,5.0426,0,4.9626,4.9772,4.9898,4.9935,5.0016,5.0075,5.0111,5.0173,5.0227,5.0302,5.0337,5.0423,5.047,5.0537,5.0553,5.0499,5.0703,5.0631,5.0716,5.0716,5.0759,5.0756,5.0999,5.0793,5.0792,5.0792,5.0791,0,4.9819,4.9929,4.9959,5.0037,5.0159,5.0169,5.029,5.0323,5.0378,5.046,5.0446,5.0524,5.0541,5.0623,5.0636,5.0757,5.0779,5.0793,5.0795,5.0793,5.0791,5.0823,5.0811,5.0798,5.0797,5.0796,5.0795,0,4.999,5.0015,5.015,5.0216,5.0234,5.0322,5.0377,5.0451,5.0475,5.058,5.0605,5.0643,5.0737,5.076,5.0874,5.0883,5.1025,5.1018,5.1003,5.1002,5.1085,5.1076,5.1356,5.1392,5.1164,5.1166,5.1168,0,5.0111,5.0195,5.0269,5.0323,5.0362,5.045,5.0505,5.0518,5.0576,5.0657,5.0721,5.0814,5.0889,5.1042,5.1079,5.1165,5.1158,5.125,5.1171,5.1166,5.1157,5.1151,5.1159,5.1265,5.1267,5.1269,5.1271,0,5.0323,5.033,5.041,5.0495,5.0561,5.0628,5.0692,5.0737,5.0759,5.0825,5.0921,5.098,5.1095,5.1187,5.1273,5.1311,5.1294,5.1296,5.132,5.1318,5.1305,5.1311,5.1042,5.1289,5.1287,5.1286,5.1285,5.1284,5.0471,5.0544,5.0607,5.0696,5.0745,5.0805,5.0877,5.091,5.099,5.1084,5.1088,5.1192,5.1255,5.137,5.1412,5.1494,5.1465,5.1501,5.1509,5.1517,5.1524,5.1294,5.151,5.1509,5.1509,5.1509,5.1508,0,5.068,5.0719,5.0801,5.089,5.096,5.0939,5.1008,5.1068,5.116,5.122,5.1294,5.1404,5.1493,5.1537,5.1625,5.1682,5.1677,5.1705,5.17,5.1708,5.1545,5.1514,5.1707,5.1707,5.1707,5.1707,5.1707,5.1707,5.0797,5.0918,5.0933,5.1079,5.1117,5.1219,5.126,5.1315,5.1362,5.1486,5.1559,5.1587,5.1641,5.1733,5.1813,5.1824,5.1856,5.1887,5.1894,5.174,5.172,5.1701,5.1672,5.1895,5.1895,5.205,5.2052,5.2053]},{"header":{"parameterUnit":"m.s-1","parameterCategory":1,"la1":30.2991,"la2":30.254,"lo1":-89.0895,"lo2":-89.0444,"dy":0.0017,"dx":0.0017,"nx":28,"ny":28,"refTime":"2023-08-06T21:00:00:Z","depth":0,"parameterNumber":3,"parameterNumberName":"V-component_of_WINDS"},"data":[0,0,0,0,0,0,0,0,0,0,0,0,0,0,0,0,0,0,0,0,0,0,0,0,0,0,0,0,0,0,0,0,0,0,0,0,0,0,0,0,0,0,0,0,0,0,0,0,0,0,0,0,0,0,0,0,0,0,0.9442,0.9442,0,0.9428,0.9428,0.9427,0.9389,0.9388,0.9388,0.9387,0.9374,0.9374,0.9374,0,0,0,0,0,0,0,0,0,0,0,0,0,0.9436,0.9436,0.9442,0.9442,0.9441,0.9428,0.9428,0.9427,0.9389,0.9388,0.9387,0.9386,0.9373,0.9374,0.9374,0,0,0,0,0,0,0,0,0,0,0,0,0,0.9432,0.9436,0.9442,0.9421,0.9419,0.9428,0.9428,0.9427,0.939,0.9388,0.9387,0.9386,0.9373,0.9374,0.9374,0.9403,0,0,0.9376,0.9377,0,0,0,0,0,0,0,0,0.9432,0.9432,0.9424,0.9422,0.942,0.9409,0.942,0.9419,0.939,0.9401,0.9387,0.9385,0.9386,0.9386,0.9386,0.9402,0.9402,0.9376,0.9377,0.9377,0.9377,0,0,0,0,0,0,0,0.9432,0.9432,0.9436,0.9424,0.9421,0.9412,0.941,0.942,0.9401,0.94,0.9397,0.9396,0.9385,0.9385,0.9385,0.9402,0.9376,0.9377,0.9377,0.9378,0.944,0.9441,0,0,0,0,0,0,0.9435,0.9433,0.9437,0.9436,0.9423,0.9413,0.9411,0.9414,0.94,0.9397,0.9397,0.9394,0.9385,0.9385,0.9385,0.9417,0.9377,0.9378,0.9378,0.9439,0.944,0.9442,0,0,0,0,0,0,0.9435,0.9436,0.9437,0.9434,0.9433,0.9415,0.9418,0.9414,0.9415,0.9398,0.9395,0.9401,0.9384,0.9384,0.9399,0.9416,0.9378,0.9378,0.9437,0.9439,0.9441,0.9483,0,0,0,0,0,0,0.9435,0.9436,0.9447,0.9434,0.9433,0.9452,0.9419,0.9415,0.9416,0.9412,0.9401,0.9398,0.9383,0.9398,0.9399,0.9416,0.9379,0.9436,0.9438,0.9441,0.948,0.9486,0.9491,0,0,0,0,0,0.9435,0.946,0.9448,0.9449,0.9446,0.9453,0.9452,0.9434,0.9417,0.9428,0.9417,0.9398,0.9414,0.94,0.9401,0.9419,0.9435,0.9438,0.944,0.9477,0.9485,0.9491,0,0,0,0,0,0,0.9476,0.9458,0.9444,0.9465,0.9461,0.9446,0.9459,0.9443,0.9443,0.944,0.9417,0.9415,0.9433,0.9427,0.9412,0.9445,0.9421,0.9424,0.9449,0.9456,0.9461,0.9463,0.9379,0,0,0,0,0,0.9488,0.9494,0.9478,0.9498,0.9496,0.9478,0.948,0.9466,0.9461,0.9459,0.9449,0.9445,0.9448,0.9451,0.9454,0.9478,0.9475,0.9491,0.9496,0.9501,0.9505,0.9516,0.9523,0.9451,0.9451,0.9451,0,0,0.9512,0.9502,0.9508,0.9506,0.95,0.9508,0.9477,0.9486,0.9491,0.946,0.9473,0.9466,0.946,0.9479,0.9487,0.9475,0.9523,0.9505,0.9509,0.951,0.952,0.9527,0.9533,0.9453,0.9453,0.9453,0,0,0.9559,0.9552,0.9568,0.9563,0.9555,0.9543,0.9547,0.9534,0.9528,0.9541,0.9518,0.9523,0.953,0.9526,0.9525,0.957,0.9552,0.9571,0.9601,0.9613,0.9619,0.9623,0.9639,0.9645,0.9574,0.9574,0.9574,0,0.959,0.9599,0.9578,0.9589,0.9588,0.956,0.9575,0.9572,0.9566,0.9566,0.9552,0.9559,0.9553,0.9571,0.9582,0.9582,0.9585,0.9573,0.9619,0.9624,0.9628,0.9643,0.9649,0.9577,0.9576,0.9576,0.9576,0,0.9637,0.9644,0.9658,0.9652,0.9653,0.9666,0.9647,0.965,0.9636,0.9625,0.9638,0.9629,0.9629,0.9632,0.9619,0.9648,0.9641,0.9623,0.9599,0.9638,0.9652,0.9657,0.958,0.9579,0.9578,0.9578,0,0,0.9712,0.9692,0.9698,0.9695,0.9683,0.9688,0.97,0.9699,0.9703,0.9699,0.9708,0.9714,0.9697,0.9696,0.9681,0.9692,0.9727,0.9673,0.9672,0.9684,0.9759,0.9773,0.978,0.9715,0.9716,0.9717,0.976,0,0.9756,0.9775,0.9755,0.9778,0.9784,0.9756,0.9766,0.976,0.975,0.9753,0.9742,0.9747,0.9724,0.9723,0.9732,0.9721,0.9742,0.9718,0.9724,0.9724,0.9727,0.9787,0.9801,0.9842,0.9765,0.9766,0.9766,0,0.9811,0.9809,0.9832,0.9818,0.982,0.983,0.9827,0.9831,0.9823,0.9815,0.9813,0.9795,0.9805,0.978,0.9794,0.9778,0.9779,0.9773,0.9775,0.9775,0.9748,0.9789,0.9855,0.9861,0.9774,0.9774,0.9773,0,0.9863,0.9866,0.988,0.9878,0.9863,0.987,0.9863,0.9854,0.9855,0.9853,0.9853,0.9852,0.9852,0.9851,0.9834,0.9817,0.9849,0.9823,0.9843,0.9843,0.9852,0.9852,0.9919,0.9852,0.9851,0.9851,0.9851,0,0.9916,0.9931,0.9903,0.9912,0.9928,0.9905,0.9922,0.9913,0.9905,0.9911,0.9887,0.9893,0.9869,0.9873,0.9859,0.9872,0.9872,0.9866,0.9862,0.9869,0.987,0.987,0.9867,0.9853,0.9853,0.9852,0.9852,0,0.9977,0.9959,0.9973,0.9956,0.9952,0.9965,0.9951,0.9958,0.9946,0.9954,0.9955,0.9935,0.9938,0.992,0.992,0.9911,0.9931,0.9922,0.9934,0.9931,0.9952,0.9951,1.0023,1.0031,0.9958,0.9959,0.9959,0,1.0013,1.0023,1.0008,1.001,1.0005,1.0009,1.0009,0.9987,0.9988,0.9979,0.9988,0.9989,0.9988,0.9995,0.9981,0.9981,0.9972,0.9997,0.9972,0.9978,0.9973,0.9973,0.9974,1.0003,1.0004,1.0004,1.0005,0,1.0077,1.0067,1.0068,1.0066,1.0066,1.0064,1.0059,1.0063,1.0038,1.0041,1.0043,1.0043,1.0043,1.0044,1.0041,1.0034,1.0016,1.0013,1.0017,1.0024,1.0031,1.0028,0.9949,1.0011,1.0011,1.001,1.001,1.001,1.0126,1.0134,1.0124,1.0126,1.012,1.0117,1.0122,1.011,1.0112,1.0109,1.0096,1.0101,1.0092,1.0086,1.0081,1.0085,1.0073,1.0079,1.0081,1.0083,1.0087,1.0029,1.0084,1.0084,1.0083,1.0083,1.0083,0,1.019,1.0181,1.0183,1.0177,1.0179,1.016,1.0154,1.0156,1.0161,1.0154,1.0154,1.0157,1.0157,1.0143,1.0142,1.0148,1.0139,1.0148,1.0148,1.0147,1.0098,1.0094,1.0155,1.0155,1.0155,1.0155,1.0155,1.0155,1.0223,1.0235,1.0224,1.0234,1.0225,1.023,1.0228,1.0224,1.0218,1.0222,1.0223,1.0213,1.0203,1.0201,1.0201,1.0196,1.0197,1.0209,1.0202,1.0157,1.015,1.0144,1.014,1.021,1.021,1.0251,1.0251,1.0252]}]]